{"data":{"norad_id":61942,"intl_designator":"2024-209D","name":"STARLINK-11320 [DTC]","alt_names":[],"object_type":"PAYLOAD","status":"ACTIVE","operator":null,"country":"US","launch_date":"2024-11-14","launch_site_code":"AFWTR","launch_vehicle":null,"mission":null,"orbit_class":"UNKNOWN","rcs_meters":null,"size_class":null,"mass_kg":null,"dimensions":null,"purposes":["comms"],"wikipedia_slug":null,"has_3d_model":false,"image_url":null,"decayed_at":null,"tle_current":{"epoch":"2026-09-21T22:06:15.945696Z","epoch_age_seconds":62870,"freshness":"FRESH","line1":"1 61942U 24209D   26264.92101789  .00118663  00000+0  96973-3 0  9997","line2":"2 61942  53.1564 124.2535 0001648  32.1754 327.9364 15.69725279107499","mean_motion":15.69725279,"eccentricity":0.0001648,"inclination_deg":53.1564,"raan_deg":124.2535,"arg_perigee_deg":32.1754,"mean_anomaly_deg":327.9364,"bstar":0.00096973,"rev_number":10749,"period_min":91.735797292973,"perigee_km":358.57263538428,"apogee_km":360.79342086555,"semimajor_km":6737.8200281249,"source":"CELESTRAK","updated_at":"2026-09-22T09:00:49.454112Z"}}}